Date,TemperatureHighF,TemperatureAvgF,TemperatureLowF,DewpointHighF,DewpointAvgF,DewpointLowF,HumidityHigh,HumidityAvg,HumidityLow,PressureMaxIn,PressureMinIn,WindSpeedMaxMPH,WindSpeedAvgMPH,GustSpeedMaxMPH,PrecipitationSumIn
2013-4-1,79.3,64.0,43.2,33.4,25.1,16.4,47,25,10,29.89,29.89,16,5,21,0.00
2013-4-2,73.0,57.5,41.5,34.0,16.3,-7.5,51,24,4,29.89,29.85,17,6,26,0.00
2013-4-3,74.6,57.6,36.5,32.0,19.6,9.0,46,25,9,29.86,29.86,12,3,18,0.00
2013-4-4,81.8,62.2,40.4,37.5,17.4,1.0,49,23,5,29.86,29.86,8,3,14,0.00
2013-4-5,83.2,66.8,46.4,34.2,20.3,10.2,40,18,7,29.86,29.86,17,7,23,0.00
2013-4-6,79.9,67.3,52.5,34.6,27.2,20.9,40,23,12,29.86,29.86,15,6,25,0.00
2013-4-7,80.1,66.7,45.8,40.4,27.6,19.4,56,26,12,29.86,29.86,15,6,21,0.00
2013-4-8,78.3,64.9,53.1,35.3,30.0,24.1,45,28,15,29.86,29.86,33,12,51,0.00
2013-4-9,58.2,48.9,38.6,39.0,27.5,18.2,84,47,21,29.86,29.86,27,12,32,0.03
2013-4-10,62.3,50.9,36.2,30.5,22.4,18.1,62,34,20,29.86,29.86,17,6,22,0.00
2013-4-11,74.4,55.8,32.7,29.3,21.5,11.8,59,30,9,29.86,29.86,11,4,14,0.00
2013-4-12,75.2,58.1,41.4,33.3,22.3,17.2,43,27,12,29.86,29.86,11,2,11,0.00
2013-4-13,77.8,62.7,39.9,33.7,20.8,15.7,45,23,10,29.86,29.86,15,6,21,0.00
2013-4-14,78.0,66.1,52.7,32.9,27.4,18.7,38,25,11,29.86,29.86,18,9,24,0.00
2013-4-15,80.3,66.9,53.8,34.9,28.1,17.9,42,26,10,29.86,29.62,19,7,24,0.00
2013-4-16,79.8,67.7,58.1,39.0,24.7,5.7,43,23,6,29.62,29.62,24,11,30,0.00
2013-4-17,63.0,56.4,41.0,39.4,24.0,8.3,47,30,16,29.62,29.62,32,13,42,0.00
2013-4-18,63.5,48.7,29.5,15.0,6.3,-2.8,38,20,7,29.62,29.62,10,4,17,0.00
2013-4-19,71.1,52.1,32.8,17.7,1.3,-8.9,28,15,4,29.62,29.62,9,4,14,0.00
2013-4-20,78.0,59.1,34.1,14.7,4.4,-4.3,27,12,5,29.62,29.62,16,5,20,0.00
2013-4-21,83.3,63.8,41.1,17.8,11.3,-6.0,30,15,3,29.62,29.62,12,3,15,0.00
2013-4-30,86.8,76.1,70.5,24.0,13.3,-99.9,17,10,5,29.61,-32.77,19,-3,25,0.00